SAS402 EDDB-ESSA

Flight info

Callsign SAS402
Flight time 1h 21m
Altitude 38000
Route GERGA4B GERGA M725 RENKI Y89 USEDU DCT BANUB/N0448F390 DCT POKEN DCT VIBAR/N0387F270 Z227 NILUG
Aircraft A20N/M-SDE3FGIJ1RWXY/ALB1

Departure

Time 2026-05-07 22:13
Airport Berlin Brandenburg Airport (EDDB)

Arrival

Time 2026-05-07 23:35
Airport Stockholm-Arlanda Airport (ESSA)
Time Latitude Longitude Altitude Speed Heading
2026-05-07 21:26 52.36283 13.50655 166 ft 0 kts 69°
2026-05-07 21:57 52.36282 13.50651 166 ft 2 kts 71°
2026-05-07 21:57 52.36280 13.50627 166 ft 2 kts 78°
2026-05-07 21:58 52.36276 13.50603 166 ft 2 kts 76°
2026-05-07 21:58 52.36273 13.50579 166 ft 2 kts 77°
2026-05-07 21:58 52.36270 13.50555 166 ft 2 kts 77°
2026-05-07 21:58 52.36267 13.50538 166 ft 0 kts 77°
2026-05-07 21:59 52.36264 13.50522 166 ft 1 kts 38°
2026-05-07 21:59 52.36254 13.50516 166 ft 0 kts 344°
2026-05-07 21:59 52.36248 13.50522 166 ft 0 kts 329°
2026-05-07 21:59 52.36244 13.50525 166 ft 0 kts 338°
2026-05-07 22:03 52.36245 13.50525 166 ft 0 kts 338°
2026-05-07 22:03 52.36247 13.50523 166 ft 0 kts 339°
2026-05-07 22:04 52.36250 13.50522 166 ft 0 kts 339°
2026-05-07 22:04 52.36253 13.50520 166 ft 0 kts 339°
2026-05-07 22:04 52.36257 13.50517 166 ft 0 kts 339°
2026-05-07 22:04 52.36261 13.50515 166 ft 0 kts 339°
2026-05-07 22:05 52.36266 13.50512 166 ft 0 kts 340°
2026-05-07 22:05 52.36271 13.50509 166 ft 1 kts 340°
2026-05-07 22:05 52.36281 13.50503 166 ft 2 kts 340°
2026-05-07 22:05 52.36301 13.50492 166 ft 3 kts 340°
2026-05-07 22:06 52.36330 13.50475 166 ft 5 kts 340°
2026-05-07 22:06 52.36369 13.50452 166 ft 6 kts 340°
2026-05-07 22:06 52.36416 13.50424 166 ft 7 kts 338°
2026-05-07 22:06 52.36471 13.50389 166 ft 9 kts 339°
2026-05-07 22:07 52.36534 13.50347 166 ft 10 kts 332°
2026-05-07 22:07 52.36588 13.50262 166 ft 11 kts 314°
2026-05-07 22:07 52.36657 13.50185 166 ft 11 kts 332°
2026-05-07 22:07 52.36715 13.50121 166 ft 8 kts 311°
2026-05-07 22:08 52.36752 13.50055 166 ft 8 kts 317°
2026-05-07 22:08 52.36782 13.49969 166 ft 9 kts 266°
2026-05-07 22:08 52.36759 13.49856 166 ft 11 kts 249°
2026-05-07 22:08 52.36731 13.49733 166 ft 12 kts 249°
2026-05-07 22:09 52.36700 13.49597 166 ft 13 kts 249°
2026-05-07 22:09 52.36665 13.49452 166 ft 14 kts 248°
2026-05-07 22:09 52.36629 13.49300 166 ft 14 kts 249°
2026-05-07 22:09 52.36592 13.49139 166 ft 15 kts 250°
2026-05-07 22:10 52.36556 13.48971 166 ft 16 kts 251°
2026-05-07 22:10 52.36521 13.48810 166 ft 14 kts 248°
2026-05-07 22:10 52.36475 13.48667 166 ft 14 kts 241°
2026-05-07 22:10 52.36430 13.48519 166 ft 14 kts 248°
2026-05-07 22:11 52.36459 13.48401 166 ft 11 kts 329°
2026-05-07 22:11 52.36532 13.48353 166 ft 8 kts 341°
2026-05-07 22:11 52.36590 13.48321 166 ft 9 kts 342°
2026-05-07 22:11 52.36655 13.48288 166 ft 8 kts 342°
2026-05-07 22:12 52.36716 13.48291 166 ft 9 kts 40°
2026-05-07 22:12 52.36742 13.48384 166 ft 6 kts 68°
2026-05-07 22:12 52.36761 13.48460 166 ft 7 kts 68°
2026-05-07 22:12 52.36800 13.48618 166 ft 37 kts 66°
2026-05-07 22:13 52.36984 13.49418 166 ft 111 kts 67°
2026-05-07 22:13 52.37329 13.50908 167 ft 169 kts 68°
2026-05-07 22:13 52.37798 13.52858 564 ft 188 kts 67°
2026-05-07 22:13 52.38294 13.54725 1584 ft 178 kts 63°
2026-05-07 22:14 52.38835 13.56432 2556 ft 169 kts 61°
2026-05-07 22:14 52.39346 13.58081 3436 ft 162 kts 63°
2026-05-07 22:14 52.39795 13.59733 4142 ft 162 kts 67°
2026-05-07 22:14 52.40158 13.61484 4758 ft 166 kts 73°
2026-05-07 22:15 52.40408 13.63318 5381 ft 169 kts 79°
2026-05-07 22:15 52.40556 13.65217 6026 ft 171 kts 80°
2026-05-07 22:15 52.40917 13.67075 6634 ft 175 kts 63°
2026-05-07 22:15 52.41497 13.68816 7258 ft 179 kts 63°
2026-05-07 22:16 52.41989 13.70678 7895 ft 182 kts 71°
2026-05-07 22:16 52.42284 13.72678 8526 ft 185 kts 80°
2026-05-07 22:16 52.42383 13.74783 9163 ft 186 kts 81°
2026-05-07 22:16 52.42762 13.76762 9729 ft 185 kts 58°
2026-05-07 22:17 52.43510 13.78420 10367 ft 180 kts 45°
2026-05-07 22:17 52.44394 13.79842 10971 ft 179 kts 41°
2026-05-07 22:17 52.45320 13.81209 11538 ft 181 kts 39°
2026-05-07 22:17 52.46286 13.82555 11919 ft 194 kts 39°
2026-05-07 22:18 52.47409 13.84070 12015 ft 223 kts 38°
2026-05-07 22:18 52.50067 13.87557 12460 ft 268 kts 37°
2026-05-07 22:18 52.51596 13.89513 12767 ft 286 kts 37°
2026-05-07 22:19 52.53209 13.91582 13183 ft 303 kts 38°
2026-05-07 22:19 52.54760 13.93986 13619 ft 318 kts 45°
2026-05-07 22:19 52.56313 13.96638 14212 ft 326 kts 44°
2026-05-07 22:19 52.57926 13.99249 14946 ft 330 kts 43°
2026-05-07 22:20 52.59756 14.01523 15647 ft 332 kts 24°
2026-05-07 22:20 52.61974 14.02417 16340 ft 333 kts
2026-05-07 22:20 52.64278 14.02079 17051 ft 336 kts 352°
2026-05-07 22:20 52.66578 14.01553 17705 ft 339 kts 352°
2026-05-07 22:21 52.68907 14.01031 18352 ft 343 kts 352°
2026-05-07 22:21 52.71288 14.00509 19015 ft 345 kts 352°
2026-05-07 22:21 52.73658 13.99998 19650 ft 349 kts 353°
2026-05-07 22:21 52.76101 13.99476 20186 ft 355 kts 353°
2026-05-07 22:22 52.78547 13.98955 20742 ft 360 kts 353°
2026-05-07 22:22 52.81031 13.98425 21349 ft 363 kts 353°
2026-05-07 22:22 52.83534 13.97891 21940 ft 367 kts 353°
2026-05-07 22:22 52.86059 13.97353 22512 ft 370 kts 353°
2026-05-07 22:23 52.88619 13.96819 23085 ft 373 kts 354°
2026-05-07 22:23 52.91208 13.96545 23663 ft 376 kts 359°
2026-05-07 22:23 52.93831 13.96652 24234 ft 378 kts
2026-05-07 22:23 52.96473 13.97066 24785 ft 382 kts
2026-05-07 22:24 52.99082 13.97547 25321 ft 384 kts
2026-05-07 22:24 53.01767 13.98053 25854 ft 388 kts
2026-05-07 22:24 53.04446 13.98555 26386 ft 390 kts
2026-05-07 22:24 53.07148 13.99058 26891 ft 393 kts
2026-05-07 22:25 53.09845 13.99561 27365 ft 396 kts
2026-05-07 22:25 53.12581 14.00067 27846 ft 399 kts
2026-05-07 22:25 53.15346 14.00581 28321 ft 401 kts
2026-05-07 22:25 53.18124 14.01100 28746 ft 404 kts
2026-05-07 22:26 53.20893 14.01618 29157 ft 406 kts
2026-05-07 22:26 53.23728 14.02147 29557 ft 408 kts
2026-05-07 22:26 53.26544 14.02674 29932 ft 411 kts
2026-05-07 22:26 53.29356 14.03199 30279 ft 413 kts
2026-05-07 22:27 53.32240 14.03739 30601 ft 416 kts
2026-05-07 22:27 53.35109 14.04276 30917 ft 418 kts
2026-05-07 22:27 53.37986 14.04815 31221 ft 421 kts
2026-05-07 22:27 53.40885 14.05360 31506 ft 421 kts
2026-05-07 22:28 53.43796 14.05909 31822 ft 422 kts
2026-05-07 22:28 53.46699 14.06457 32151 ft 421 kts
2026-05-07 22:28 53.49590 14.07003 32451 ft 421 kts
2026-05-07 22:28 53.52488 14.07551 32710 ft 421 kts
2026-05-07 22:29 53.55380 14.08045 32963 ft 421 kts
2026-05-07 22:29 53.58322 14.08289 33205 ft 421 kts
2026-05-07 22:29 53.61250 14.08243 33442 ft 422 kts 358°
2026-05-07 22:29 53.64156 14.07911 33680 ft 422 kts 354°
2026-05-07 22:30 53.67068 14.07291 33904 ft 423 kts 351°
2026-05-07 22:30 53.69914 14.06401 34115 ft 423 kts 348°
2026-05-07 22:30 53.72800 14.05333 34336 ft 424 kts 347°
2026-05-07 22:30 53.75661 14.04233 34574 ft 424 kts 347°
2026-05-07 22:31 53.78511 14.03135 34816 ft 424 kts 347°
2026-05-07 22:31 53.81403 14.02023 35050 ft 424 kts 347°
2026-05-07 22:31 53.84267 14.00926 35265 ft 424 kts 347°
2026-05-07 22:31 53.87110 13.99846 35475 ft 424 kts 349°
2026-05-07 22:32 53.90031 13.99057 35682 ft 423 kts 354°
2026-05-07 22:32 53.92928 13.98762 35884 ft 424 kts 360°
2026-05-07 22:32 53.95892 13.98963 36057 ft 424 kts
2026-05-07 22:32 53.98800 13.99658 36232 ft 425 kts 11°
2026-05-07 22:33 54.01635 14.00833 36402 ft 425 kts 17°
2026-05-07 22:33 54.04436 14.02459 36576 ft 425 kts 20°
2026-05-07 22:33 54.07182 14.04224 36736 ft 426 kts 21°
2026-05-07 22:33 54.09943 14.06033 36902 ft 427 kts 21°
2026-05-07 22:34 54.12737 14.07862 37050 ft 428 kts 21°
2026-05-07 22:34 54.15537 14.09689 37180 ft 430 kts 21°
2026-05-07 22:34 54.18308 14.11495 37304 ft 431 kts 21°
2026-05-07 22:34 54.21122 14.13329 37433 ft 432 kts 21°
2026-05-07 22:35 54.23892 14.15133 37552 ft 434 kts 20°
2026-05-07 22:35 54.26715 14.16974 37658 ft 435 kts 20°
2026-05-07 22:35 54.29550 14.18824 37738 ft 438 kts 20°
2026-05-07 22:36 54.35247 14.22553 37906 ft 442 kts 20°
2026-05-07 22:36 54.38128 14.24443 38027 ft 443 kts 20°
2026-05-07 22:36 54.40983 14.26319 38159 ft 443 kts 20°
2026-05-07 22:36 54.43874 14.28219 38274 ft 444 kts 20°
2026-05-07 22:37 54.46725 14.30137 38382 ft 445 kts 22°
2026-05-07 22:37 54.49591 14.32213 38499 ft 446 kts 22°
2026-05-07 22:37 54.52411 14.34304 38606 ft 446 kts 23°
2026-05-07 22:37 54.55277 14.36443 38739 ft 447 kts 23°
2026-05-07 22:38 54.58102 14.38552 38868 ft 447 kts 23°
2026-05-07 22:38 54.60963 14.40688 39010 ft 447 kts 23°
2026-05-07 22:38 54.63779 14.42791 39144 ft 447 kts 23°
2026-05-07 22:39 54.69487 14.47061 39190 ft 449 kts 22°
2026-05-07 22:39 54.75214 14.51357 39191 ft 454 kts 22°
2026-05-07 22:40 54.81046 14.55726 39199 ft 460 kts 21°
2026-05-07 22:40 54.87030 14.59586 39200 ft 465 kts 18°
2026-05-07 22:41 54.93127 14.63315 39204 ft 469 kts 18°
2026-05-07 22:41 54.99297 14.67108 39200 ft 470 kts 19°
2026-05-07 22:42 55.05428 14.70903 39204 ft 470 kts 19°
2026-05-07 22:42 55.11566 14.74720 39206 ft 470 kts 19°
2026-05-07 22:43 55.17710 14.78555 39208 ft 470 kts 19°
2026-05-07 22:43 55.23859 14.82406 39200 ft 470 kts 19°
2026-05-07 22:44 55.29981 14.86251 39207 ft 470 kts 19°
2026-05-07 22:44 55.36109 14.90113 39209 ft 470 kts 19°
2026-05-07 22:45 55.42231 14.93985 39209 ft 470 kts 19°
2026-05-07 22:45 55.48359 14.97875 39210 ft 470 kts 19°
2026-05-07 22:46 55.54458 15.01757 39211 ft 470 kts 19°
2026-05-07 22:46 55.60578 15.05666 39215 ft 469 kts 19°
2026-05-07 22:47 55.66696 15.09587 39218 ft 469 kts 19°
2026-05-07 22:47 55.72786 15.13501 39214 ft 469 kts 19°
2026-05-07 22:48 55.78922 15.17461 39214 ft 469 kts 19°
2026-05-07 22:48 55.85003 15.21397 39215 ft 469 kts 19°
2026-05-07 22:49 55.91093 15.25352 39216 ft 469 kts 19°
2026-05-07 22:49 55.97192 15.29326 39218 ft 469 kts 19°
2026-05-07 22:50 56.03302 15.33323 39227 ft 468 kts 19°
2026-05-07 22:50 56.09391 15.37317 39222 ft 468 kts 19°
2026-05-07 22:51 56.15485 15.41329 39215 ft 468 kts 19°
2026-05-07 22:51 56.21558 15.45340 39224 ft 468 kts 19°
2026-05-07 22:52 56.27642 15.49373 39221 ft 468 kts 19°
2026-05-07 22:52 56.33715 15.53411 39213 ft 468 kts 19°
2026-05-07 22:53 56.39782 15.57459 39220 ft 468 kts 19°
2026-05-07 22:53 56.45891 15.61549 39215 ft 467 kts 19°
2026-05-07 22:54 56.51928 15.65605 39221 ft 467 kts 20°
2026-05-07 22:54 56.58024 15.69715 39213 ft 467 kts 19°
2026-05-07 22:55 56.64081 15.73812 39227 ft 467 kts 19°
2026-05-07 22:55 56.70134 15.77922 39215 ft 467 kts 19°
2026-05-07 22:56 56.76186 15.82043 39225 ft 466 kts 19°
2026-05-07 22:56 56.82238 15.86180 39235 ft 466 kts 19°
2026-05-07 22:57 56.88301 15.90338 39231 ft 465 kts 19°
2026-05-07 22:57 56.94313 15.94476 39224 ft 465 kts 19°
2026-05-07 22:58 57.00342 15.98639 39229 ft 465 kts 19°
2026-05-07 22:58 57.06400 16.02838 39224 ft 466 kts 19°
2026-05-07 22:59 57.12437 16.07038 39236 ft 466 kts 19°
2026-05-07 22:59 57.18478 16.11255 39238 ft 466 kts 19°
2026-05-07 23:00 57.24514 16.15482 39239 ft 465 kts 19°
2026-05-07 23:00 57.30539 16.19718 39239 ft 465 kts 19°
2026-05-07 23:01 57.36525 16.23942 39232 ft 465 kts 19°
2026-05-07 23:01 57.42550 16.28210 39251 ft 465 kts 19°
2026-05-07 23:02 57.48577 16.32494 39236 ft 465 kts 19°
2026-05-07 23:02 57.54563 16.36825 39234 ft 466 kts 21°
2026-05-07 23:03 57.60344 16.42087 39232 ft 466 kts 27°
2026-05-07 23:03 57.65864 16.48339 39236 ft 466 kts 30°
2026-05-07 23:04 57.71353 16.54784 39232 ft 466 kts 30°
2026-05-07 23:04 57.76814 16.61200 38778 ft 467 kts 30°
2026-05-07 23:04 57.79534 16.64397 38350 ft 463 kts 30°
2026-05-07 23:05 57.82284 16.67636 37738 ft 462 kts 31°
2026-05-07 23:05 57.84956 16.70785 37096 ft 461 kts 30°
2026-05-07 23:05 57.87655 16.73974 36536 ft 459 kts 30°
2026-05-07 23:05 57.90347 16.77154 36082 ft 456 kts 30°
2026-05-07 23:06 57.93015 16.80314 35569 ft 453 kts 30°
2026-05-07 23:06 57.95642 16.83432 35042 ft 451 kts 30°
2026-05-07 23:06 57.98267 16.86552 34383 ft 449 kts 30°
2026-05-07 23:06 58.00883 16.89661 33579 ft 450 kts 30°
2026-05-07 23:07 58.03529 16.92809 32723 ft 452 kts 30°
2026-05-07 23:07 58.06187 16.95984 31996 ft 450 kts 30°
2026-05-07 23:07 58.08786 16.99093 31416 ft 446 kts 30°
2026-05-07 23:07 58.11402 17.02233 30889 ft 441 kts 30°
2026-05-07 23:08 58.13965 17.05316 30385 ft 436 kts 30°
2026-05-07 23:08 58.16498 17.08365 29896 ft 432 kts 29°
2026-05-07 23:08 58.18990 17.11368 29420 ft 427 kts 29°
2026-05-07 23:08 58.21498 17.14394 28944 ft 423 kts 29°
2026-05-07 23:09 58.23929 17.17332 28483 ft 419 kts 29°
2026-05-07 23:09 58.26365 17.20284 28023 ft 415 kts 29°
2026-05-07 23:09 58.28776 17.23210 27565 ft 411 kts 29°
2026-05-07 23:09 58.31165 17.26110 27115 ft 408 kts 29°
2026-05-07 23:10 58.33534 17.28993 26670 ft 405 kts 29°
2026-05-07 23:10 58.35888 17.31862 26226 ft 401 kts 28°
2026-05-07 23:10 58.38226 17.34715 25783 ft 399 kts 28°
2026-05-07 23:10 58.40551 17.37558 25333 ft 395 kts 28°
2026-05-07 23:11 58.42852 17.40376 24896 ft 393 kts 28°
2026-05-07 23:11 58.45116 17.43153 24455 ft 390 kts 28°
2026-05-07 23:11 58.47395 17.45953 24012 ft 388 kts 28°
2026-05-07 23:11 58.49647 17.48722 23585 ft 386 kts 28°
2026-05-07 23:12 58.51900 17.51498 23148 ft 384 kts 28°
2026-05-07 23:12 58.54119 17.54237 22710 ft 382 kts 28°
2026-05-07 23:12 58.56335 17.56976 22283 ft 380 kts 28°
2026-05-07 23:12 58.58553 17.59721 21840 ft 378 kts 28°
2026-05-07 23:13 58.60738 17.62429 21409 ft 376 kts 28°
2026-05-07 23:13 58.62904 17.65122 20989 ft 374 kts 29°
2026-05-07 23:13 58.65082 17.67832 20556 ft 372 kts 30°
2026-05-07 23:13 58.67251 17.70533 20110 ft 371 kts 30°
2026-05-07 23:14 58.69379 17.73189 19667 ft 368 kts 30°
2026-05-07 23:14 58.71523 17.75868 19252 ft 366 kts 30°
2026-05-07 23:14 58.73653 17.78537 18827 ft 364 kts 30°
2026-05-07 23:14 58.75752 17.81168 18395 ft 362 kts 30°
2026-05-07 23:15 58.77852 17.83803 17966 ft 360 kts 30°
2026-05-07 23:15 58.79913 17.86391 17541 ft 357 kts 29°
2026-05-07 23:15 58.82025 17.88830 17122 ft 352 kts 25°
2026-05-07 23:15 58.84192 17.90970 17100 ft 346 kts 23°
2026-05-07 23:16 58.86343 17.93002 17132 ft 346 kts 22°
2026-05-07 23:16 58.88509 17.95035 17164 ft 347 kts 22°
2026-05-07 23:16 58.90642 17.97040 17176 ft 347 kts 22°
2026-05-07 23:16 58.92835 17.99108 17203 ft 347 kts 22°
2026-05-07 23:17 58.94991 18.01150 17224 ft 347 kts 22°
2026-05-07 23:17 58.97150 18.03197 17222 ft 346 kts 22°
2026-05-07 23:17 58.99287 18.05229 17215 ft 346 kts 22°
2026-05-07 23:17 59.01445 18.07283 17224 ft 346 kts 22°
2026-05-07 23:18 59.03599 18.09336 17229 ft 346 kts 22°
2026-05-07 23:18 59.05764 18.11400 17234 ft 346 kts 22°
2026-05-07 23:18 59.07908 18.13418 17231 ft 345 kts 19°
2026-05-07 23:18 59.10177 18.14903 17238 ft 341 kts
2026-05-07 23:19 59.12511 18.15608 17244 ft 337 kts
2026-05-07 23:19 59.14845 18.15915 17230 ft 337 kts 359°
2026-05-07 23:19 59.17188 18.16164 16964 ft 338 kts 359°
2026-05-07 23:19 59.19540 18.16410 16464 ft 339 kts 359°
2026-05-07 23:20 59.21880 18.16664 16009 ft 337 kts 360°
2026-05-07 23:20 59.24216 18.16928 15570 ft 336 kts 360°
2026-05-07 23:20 59.26504 18.17192 15146 ft 334 kts
2026-05-07 23:20 59.28816 18.17463 14741 ft 332 kts
2026-05-07 23:21 59.31113 18.17733 14309 ft 330 kts
2026-05-07 23:21 59.33390 18.18002 13898 ft 327 kts
2026-05-07 23:21 59.35625 18.18267 13489 ft 325 kts
2026-05-07 23:21 59.37875 18.18533 13092 ft 322 kts
2026-05-07 23:22 59.40081 18.18796 12697 ft 319 kts
2026-05-07 23:22 59.42279 18.19059 12302 ft 316 kts
2026-05-07 23:22 59.44471 18.19320 11905 ft 313 kts
2026-05-07 23:22 59.46608 18.19573 11532 ft 311 kts
2026-05-07 23:23 59.48766 18.19831 11120 ft 309 kts
2026-05-07 23:23 59.50894 18.20086 10726 ft 306 kts
2026-05-07 23:23 59.52977 18.20403 10423 ft 300 kts
2026-05-07 23:23 59.55007 18.21013 10314 ft 288 kts
2026-05-07 23:24 59.56928 18.21703 10165 ft 278 kts
2026-05-07 23:24 59.58838 18.22403 9791 ft 276 kts
2026-05-07 23:24 59.60705 18.23085 9451 ft 273 kts
2026-05-07 23:24 59.62559 18.23762 9115 ft 271 kts
2026-05-07 23:25 59.64389 18.24429 8781 ft 268 kts
2026-05-07 23:25 59.66210 18.25094 8459 ft 265 kts
2026-05-07 23:25 59.68017 18.25756 8130 ft 263 kts
2026-05-07 23:25 59.69781 18.26401 7814 ft 260 kts
2026-05-07 23:26 59.71552 18.27051 7501 ft 258 kts
2026-05-07 23:26 59.73304 18.27695 7179 ft 256 kts
2026-05-07 23:26 59.75050 18.28335 6861 ft 254 kts
2026-05-07 23:26 59.76782 18.28970 6526 ft 253 kts
2026-05-07 23:27 59.80209 18.30232 5878 ft 250 kts 10°
2026-05-07 23:27 59.81917 18.30863 5561 ft 249 kts 10°
2026-05-07 23:27 59.83625 18.31464 5239 ft 248 kts
2026-05-07 23:28 59.85300 18.31037 4900 ft 248 kts 336°
2026-05-07 23:28 59.86661 18.28961 4585 ft 249 kts 307°
2026-05-07 23:28 59.87362 18.25893 4290 ft 248 kts 279°
2026-05-07 23:28 59.87261 18.22494 3985 ft 247 kts 251°
2026-05-07 23:29 59.86603 18.19350 3702 ft 246 kts 245°
2026-05-07 23:29 59.85900 18.16256 3402 ft 246 kts 245°
2026-05-07 23:29 59.85206 18.13176 3112 ft 246 kts 245°
2026-05-07 23:29 59.84516 18.10065 2816 ft 246 kts 245°
2026-05-07 23:30 59.83841 18.06989 2549 ft 240 kts 245°
2026-05-07 23:30 59.83207 18.04076 2487 ft 218 kts 245°
2026-05-07 23:30 59.82631 18.01430 2473 ft 202 kts 245°
2026-05-07 23:30 59.82016 17.98972 2487 ft 197 kts 228°
2026-05-07 23:31 59.80971 17.97568 2532 ft 173 kts 197°
2026-05-07 23:31 59.79880 17.97041 2478 ft 151 kts 187°
2026-05-07 23:31 59.78858 17.96723 2491 ft 147 kts 186°
2026-05-07 23:31 59.77839 17.96412 2434 ft 147 kts 187°
2026-05-07 23:32 59.76837 17.96078 2239 ft 146 kts 188°
2026-05-07 23:32 59.75837 17.95723 2036 ft 145 kts 188°
2026-05-07 23:32 59.74854 17.95364 1835 ft 144 kts 188°
2026-05-07 23:32 59.73873 17.95004 1634 ft 144 kts 188°
2026-05-07 23:33 59.72888 17.94644 1434 ft 143 kts 188°
2026-05-07 23:33 59.71905 17.94285 1234 ft 143 kts 188°
2026-05-07 23:33 59.70929 17.93930 1036 ft 144 kts 189°
2026-05-07 23:33 59.69949 17.93562 841 ft 144 kts 189°
2026-05-07 23:34 59.68964 17.93191 646 ft 144 kts 189°
2026-05-07 23:34 59.67985 17.92864 452 ft 144 kts 188°
2026-05-07 23:34 59.67005 17.92502 232 ft 144 kts 190°
2026-05-07 23:34 59.66022 17.92134 113 ft 140 kts 190°
2026-05-07 23:35 59.65205 17.91872 105 ft 94 kts 191°
2026-05-07 23:35 59.64735 17.91709 107 ft 41 kts 182°
2026-05-07 23:35 59.64502 17.91805 110 ft 18 kts 152°
2026-05-07 23:35 59.64485 17.91915 111 ft 7 kts 65°
2026-05-07 23:36 59.64522 17.91987 111 ft 8 kts 21°
2026-05-07 23:36 59.64586 17.92010 110 ft 10 kts
2026-05-07 23:36 59.64662 17.92034 110 ft 11 kts
2026-05-07 23:36 59.64747 17.92062 110 ft 12 kts
2026-05-07 23:37 59.64841 17.92095 109 ft 14 kts 10°
2026-05-07 23:37 59.64941 17.92133 109 ft 15 kts 11°
2026-05-07 23:37 59.65047 17.92171 108 ft 16 kts 11°
2026-05-07 23:37 59.65158 17.92216 108 ft 16 kts 12°
2026-05-07 23:38 59.65270 17.92252 108 ft 14 kts
2026-05-07 23:38 59.65371 17.92290 108 ft 14 kts 18°
2026-05-07 23:38 59.65456 17.92395 109 ft 14 kts 40°
2026-05-07 23:38 59.65488 17.92540 109 ft 11 kts 111°
2026-05-07 23:39 59.65430 17.92632 110 ft 10 kts 150°
2026-05-07 23:39 59.65366 17.92703 110 ft 10 kts 151°
2026-05-07 23:39 59.65304 17.92764 111 ft 9 kts 155°
2026-05-07 23:39 59.65273 17.92818 111 ft 5 kts 96°
2026-05-07 23:40 59.65279 17.92887 111 ft 4 kts 74°
2026-05-07 23:40 59.65288 17.92947 112 ft 4 kts 69°
2026-05-07 23:40 59.65290 17.92959 112 ft 0 kts 70°
2026-05-07 23:40 59.65291 17.92960 112 ft 0 kts 70°
2026-05-07 23:41 59.65292 17.92964 112 ft 0 kts 70°
2026-05-07 23:41 59.65292 17.92967 112 ft 0 kts 70°